Location: ???????
(54.9567°N, 38.2836°E)
Time: 13:16:22
(UTC+00:00)

SAR-Lupe-4 - Pass Details

Date: 14 April 2024
Orbit: 476 x 482 km, 98.1° (Epoch: 02 April)

Event Time Altitude Azimuth Distance (km) Brightness Sun altitude
Rises 00:30:42 0° 13° (NNE) 2,547 8.2 -15.0°
Reaches altitude 10° 00:32:46 10° 10° (N) 1,663 7.1 -14.8°
Maximum altitude 00:36:18 64° 289° (WNW) 534 3.6 -14.4°
Enters shadow 00:38:08 26° 215° (SW) 974 4.5 -14.2°
